DELTA 2 R/B, 40060

Orbit data source: Space-Track

DELTA 2 R/B, 40060 is space debris in HEO originally from a launch on Wed, 02 Jul 2014 UTC launched from the Air Force Western Test Range (AFWTR). Debris objects in space refer to the collection of defunct objects orbiting the Earth. Examples of debris include non-operational satellites, rocket bodies, and fragments generated from explosions, collisions, or faulty payload assembly.

Loading next visibility...
Identifier
40060, 2014-035B
Orbit
HEO
Country
Flag of USUS
Related business
Manufacturer
Boeing/Pueblo
Mission
Spacecraft
Bus & Motor
DELTA/0020, Unknown motor
Mass
~924 kg wet, 924 kg dry
Launch date (UTC)
2014-07-02 (11 years ago)
Launch vehicle
Unknown
Launch site
Air Force Western Test Range (AFWTR)
Object type
Payload
Rocket body
Debris
Shape & HBR
Cyl + Cone, 3.0 m
Radar Cross Section
13.836 m², Large (>1 m²)

Expand to show TLE details & history
Last TLE update: 13 hours ago

TLE from 13 hours ago
0 DELTA 2 R/B
1 40060U 14035B   25258.33265513  .00000030  00000-0  00000-0 0  9996
2 40060  98.2145  51.9475 3068032 273.2819  52.6845  6.11238283250108
Epoch: 2025-09-15T07:59Z
TLE epoch observation values (Epoch: 2025-09-15T07:59:01.403Z)
Latitude
-0.00007°
Longitude
-62.3502°
Altitude
4,877.037 km
Speed
6.269 km/s
True Right ascension
03h 27m 46s
True Declination
0° 00' 00"
Sunlit
Object was in daylight at epoch
Visualization orbit readout
Latitude
Unknown
Longitude
Unknown
Altitude
Unknown
Speed
Unknown
Apparent Right ascension
Unknown
Apparent Declination
Unknown
Sunlit
N/A
Visualization observer readout
Local Sidereal Time
13:58:21
Azimuth
Unknown
Elevation
Unknown
Doppler factor
Unknown
Orbital elements
Apogee altitude
10,131.596 km
Perigee altitude
2,379.489 km
Semi-major axis
12,633.68 km
Eccentricity
0.3068
Inclination
98.2145°
RAAN
51.9475°
Arg. of periapsis
273.2819°
True anomaly
86.79337°
Mean anomaly
52.6845°
Eccentric anomaly
69.10723°
Mean motion
1.52844 °/min
Orbital period
235.53 mins
BSTAR
0
Loading maneuver chart data...
Computing Atmospheric mass density...
Loading historical data...
Loading historical data...
Loading historical data...
Loading historical data...
Loading historical data...
Loading historical data...
Loading historical data...
Other satellites on launch #35 in the year 2014 (2014-07-02 UTC)

Documentation

Showing up to 5 results
|